CZ-2D DEB, 44605

Orbit data source: Space-Track

CZ-2D DEB, 44605 is space debris in SSO originally from a launch on Fri, 11 Nov 2016 UTC launched from the Jiuquan Satellite Launch Center, China (JSC). Debris objects in space refer to the collection of defunct objects orbiting the Earth. Examples of debris include non-operational satellites, rocket bodies, and fragments generated from explosions, collisions, or faulty payload assembly.

Loading next visibility...
CZ-2D DEB details
Identifier
44605, 2016-068E
Orbit
SSO
Last TLE update2 days ago
Origin
Flag of CNCASC (CN / PRC)
ManufacturerUnknown
MissionSpacecraft
Bus & MotorUnknown
MassUnknown
Launch date (UTC)
2016-11-11 (8 years ago)
Launch vehicleUnknown
Launch site
Jiuquan Satellite Launch Center, China (JSC)
Object type
Payload
Rocket body
Debris
Shape & HBRUnknown
Radar Cross SectionSmall (<0.1 m²)

Expand to show TLE details & history

TLE from 2 days ago
0 CZ-2D DEB
1 44605U 16068E   25042.71209860  .00001446  00000-0  99748-3 0  9991
2 44605  98.4451 146.2103 0230902 169.0661 191.5642 13.88554995413063
Epoch: 2025-02-11T17:05Z
Definitive object data (Epoch: 2025-02-11T17:05:25.319Z)
Latitude-0.00003°
Longitude107.84182°
Altitude1,102.169 km
Speed7.218 km/s
True Right ascension09h 44m 50s
True Declination0° 00' 00"
Sunlit
Object was in full shadow at TLE epoch
Visualization TLE readout
Latitude-11.68293°
Longitude-72.10948°
Altitude788.918 km
Speed7.535 km/s
Apparent Right ascension00h 39m 00s
Apparent Declination-52° 09' 59"
Sunlit
Object is in daylight
Visualization observer readout
Local Sidereal Time19:17:05
Azimuth137.959° SSE
Elevation-25.402°
Doppler factor1
Orbital elements
Apogee altitude1,099.652 km
Perigee altitude762.119 km
Semi-major axis7,309.022 km
Eccentricity0.0230902
Inclination98.4451°
RAAN146.2103°
Arg. of periapsis169.0661°
True anomaly191.04839°
Mean anomaly191.5642°
Eccentric anomaly191.30486°
Mean motion3.4734 °/min
BSTAR0.00099748
Orbital period103.64 mins
Loading maneuver chart data...
Loading historical data...
Loading historical data...
Loading historical data...
Loading historical data...
Loading historical data...
Loading historical data...
Loading historical data...

CZ-2D DEB Visibility forecast

Observer location: undefined°, undefined

Span
Click to sort rows by Start time (UTC) header in descending order
Start Az.
Max El. time (UTC)
Max El. Az.
Max El.
End time (UTC)
End Az.
9 mins2025-02-13 19:50:41.544Z7.953° NNE2025-02-13 19:54:41.544Z290.082° WNW43.819°2025-02-13 19:59:41.544Z201.709° SSW
9 mins2025-02-14 05:45:41.544Z122.514° SE2025-02-14 05:50:41.544Z58.628° ENE28.243°2025-02-14 05:54:41.544Z11.041° NNE
10 mins2025-02-14 07:27:41.544Z198.8° SSW2025-02-14 07:32:41.544Z267.009° W33.107°2025-02-14 07:37:41.544Z328.97° NNW
|